Theta_e
331 331 332 333 334 333 331 331 331 330 329 328 329 330 331 331 329 326 323 325 328 330 329 328 328 326 327 327 329 330 331 330 329 328 328 327 326 324 324 325 325 327 329 329 328 328 327 328 327 327 326 324 325 325 325 324 320 317 317 317 314 313 310 309 311 309 306 304 304 307 309 310 310 310 311 314 317 319 319 318 317 317 318 318 318
331 331 332 333 334 333 332 332 332 332 331 330 330 330 331 331 330 326 325 328 330 329 329 329 328 327 328 328 329 330 330 330 329 328 328 327 326 324 324 325 325 327 329 328 328 329 327 327 328 327 326 325 325 325 325 325 323 320 320 320 317 316 314 311 310 309 307 306 304 305 307 309 310 309 308 309 312 316 318 317 317 317 318 317 317
333 333 332 333 334 334 333 333 333 332 332 332 331 331 331 331 330 328 327 329 329 329 329 329 328 328 328 328 329 329 330 331 329 329 329 328 327 325 324 324 325 327 328 326 327 330 327 326 327 327 326 326 325 325 325 324 324 323 323 323 320 318 317 314 311 309 308 307 305 306 306 305 306 307 305 304 306 311 314 315 315 315 317 317 316
334 334 333 333 334 334 334 334 333 333 332 332 332 331 331 331 331 330 329 329 329 330 329 329 329 329 329 328 329 328 329 330 330 329 329 329 328 326 325 324 323 325 326 324 325 329 329 327 327 327 327 326 326 325 324 323 324 324 325 326 324 322 320 318 315 312 311 308 307 311 308 304 305 305 303 302 303 306 309 311 311 311 314 316 317
334 334 334 334 334 334 334 333 332 333 333 332 332 332 332 331 331 331 330 330 330 330 330 329 329 329 329 329 328 328 330 331 330 330 329 329 328 327 326 324 323 323 324 324 324 327 329 328 329 328 326 326 326 325 325 324 324 324 324 325 326 324 322 321 319 315 314 310 309 312 309 306 305 304 303 303 302 303 306 309 310 310 312 315 316
334 334 335 334 334 334 333 332 331 332 333 332 332 332 331 331 331 330 330 330 330 330 330 329 329 329 329 328 328 328 329 331 330 329 329 329 328 327 326 325 324 324 324 325 324 325 327 328 329 329 328 327 326 325 326 326 325 324 324 324 326 325 321 322 322 318 316 314 312 310 308 308 307 304 302 302 302 301 303 306 309 310 311 313 315
335 334 334 333 334 334 333 330 328 330 332 332 331 332 332 332 331 330 329 329 329 329 329 329 329 329 329 329 329 328 329 331 330 329 329 329 329 328 327 326 325 324 324 325 325 325 326 327 329 329 329 329 328 326 326 326 326 325 324 324 326 327 322 321 323 321 318 317 316 313 311 312 310 306 303 301 301 301 301 303 307 309 309 310 313
334 334 334 333 333 333 332 330 329 331 333 332 331 332 332 332 332 331 329 329 328 328 328 329 329 329 329 329 329 328 329 330 330 330 330 329 329 328 328 326 326 326 325 325 325 326 326 326 327 329 329 330 330 328 327 327 327 326 325 323 324 326 324 321 322 323 321 319 318 316 315 315 313 310 307 302 301 301 301 301 302 304 307 308 309
333 334 334 333 333 332 331 330 331 331 333 333 332 332 332 333 332 331 330 329 328 328 328 328 328 328 328 328 329 328 328 328 329 329 329 329 329 329 329 328 327 327 327 326 326 326 326 326 327 328 329 329 330 330 329 329 329 328 328 326 324 324 324 322 321 323 325 323 320 318 317 316 315 314 312 306 302 302 301 300 300 301 303 304 304
333 333 334 333 332 332 331 331 331 330 332 333 333 332 332 332 332 331 329 328 327 327 328 327 326 326 326 328 327 328 327 327 328 328 328 328 328 329 330 329 328 327 328 328 327 327 326 326 327 327 328 329 329 330 329 330 330 331 330 329 327 326 326 326 323 321 324 326 325 322 319 318 317 316 315 311 306 304 303 302 300 300 300 301 301
332 332 332 333 333 332 331 332 331 330 332 333 333 332 332 332 332 331 329 328 327 327 327 327 325 324 325 326 326 326 326 326 326 327 326 327 327 328 328 329 328 328 329 328 328 328 327 327 327 327 327 328 329 329 329 329 329 330 331 331 330 329 328 328 327 324 322 323 326 325 323 322 320 318 317 315 311 307 306 306 303 300 300 300 300
331 331 332 332 332 332 332 332 332 331 332 332 332 331 331 331 331 331 330 328 328 328 327 327 325 324 324 324 324 323 322 323 323 324 324 325 326 327 327 327 327 326 326 326 327 327 327 328 328 328 327 327 328 329 330 330 330 329 330 331 331 330 330 329 330 328 325 320 321 326 326 325 323 322 320 318 315 311 309 310 308 304 301 299 300
330 331 331 332 332 332 332 332 332 331 331 331 331 331 331 331 331 330 329 328 329 328 328 327 326 326 325 324 324 323 322 321 320 320 322 323 324 325 325 325 326 325 326 325 326 326 326 327 328 329 329 328 328 328 329 330 330 330 330 330 331 331 331 330 330 330 329 324 319 322 325 325 325 324 324 321 318 316 313 311 310 308 304 300 299
329 329 330 331 331 331 330 331 330 330 330 330 331 331 330 331 330 328 327 328 329 329 328 327 327 326 325 324 324 324 324 324 323 321 320 321 323 324 324 325 325 325 327 327 326 327 326 326 327 328 329 329 329 328 328 329 329 330 330 330 331 331 330 331 332 331 331 329 324 321 322 323 323 323 324 323 321 319 317 315 313 313 309 306 302
328 328 327 327 329 329 329 330 330 330 330 330 330 330 330 329 329 328 328 328 329 329 328 327 326 325 325 326 326 325 325 324 324 323 321 320 322 324 324 324 325 326 327 326 325 326 326 326 327 327 328 328 329 329 329 329 329 329 330 330 330 330 330 329 331 331 331 332 330 326 323 322 322 322 322 322 321 320 319 318 318 317 315 312 309
327 326 325 325 327 328 328 329 329 329 329 329 329 329 329 329 328 328 328 328 329 328 327 326 325 325 325 325 323 324 326 324 323 323 321 321 322 324 324 324 324 324 324 323 323 324 324 324 324 325 326 326 326 327 327 328 328 328 329 329 329 329 329 330 329 330 331 331 332 331 327 324 324 324 322 321 320 319 320 320 321 320 319 316 314
326 326 324 324 326 328 328 328 328 328 328 328 328 329 329 328 327 327 327 327 327 326 326 325 325 325 325 324 323 325 327 324 323 323 322 322 323 323 324 323 321 321 322 321 321 322 321 320 319 320 321 321 321 320 322 324 326 327 327 327 327 328 328 329 329 329 329 329 331 332 330 328 328 328 327 324 321 319 318 319 320 320 320 319 317
324 325 324 323 325 327 327 327 327 327 327 327 328 329 330 328 327 327 326 327 326 325 325 325 324 325 324 324 325 325 325 323 324 324 324 323 323 324 325 324 322 323 323 321 320 319 319 318 318 318 318 318 318 316 316 319 321 322 324 325 325 327 328 328 328 328 328 329 330 331 331 330 329 328 329 328 326 322 320 318 318 318 319 319 320
323 324 324 323 323 325 325 326 326 326 327 327 327 328 328 328 327 326 326 326 326 325 325 325 325 326 325 324 323 323 323 323 324 326 326 323 320 320 320 320 320 320 318 317 316 316 316 316 317 318 318 318 318 317 315 316 316 317 319 322 323 325 326 326 326 326 328 329 329 330 330 330 329 328 329 330 329 327 325 322 320 319 319 320 321
321 321 323 323 322 322 321 323 325 325 326 327 327 328 328 328 328 327 326 326 325 325 325 325 326 326 325 325 324 324 324 323 323 324 327 326 321 317 314 313 313 314 312 312 312 312 313 314 315 316 317 318 318 319 319 318 316 315 316 318 319 321 322 322 323 325 326 327 328 328 329 330 329 329 329 330 329 329 328 327 325 324 323 323 323
320 320 322 322 321 320 320 322 324 324 324 326 327 326 326 327 327 327 327 326 326 326 325 325 325 325 325 325 325 324 323 324 324 322 323 326 324 319 313 312 312 311 309 310 310 310 312 313 314 314 315 316 317 319 321 322 321 318 317 317 318 319 320 321 323 324 326 326 326 326 327 328 329 329 330 329 328 329 329 329 328 327 326 326 325
319 320 321 321 320 319 319 321 324 324 324 324 324 324 324 324 325 326 326 326 326 326 325 325 325 325 325 325 326 325 324 323 324 323 321 320 319 316 312 312 312 310 310 309 308 308 309 310 311 311 312 312 313 316 319 321 321 320 320 321 321 321 322 323 324 325 326 325 326 326 327 327 328 329 329 329 329 329 329 330 329 329 329 328 328
318 318 319 319 318 319 319 320 322 323 323 322 322 322 322 323 323 323 323 323 323 324 325 325 325 325 325 326 325 322 321 320 319 320 318 315 315 314 311 311 312 311 311 310 309 307 307 308 309 308 309 309 309 310 312 314 315 316 317 318 320 321 322 322 322 322 322 323 325 326 327 327 328 328 329 329 329 329 330 330 330 330 330 330 329
317 318 318 318 318 318 318 318 320 321 321 321 321 320 321 321 321 319 317 318 319 321 323 323 322 322 322 321 319 316 315 314 313 313 313 312 313 312 310 310 311 311 311 310 309 308 307 307 307 307 307 307 307 308 308 309 309 310 312 313 315 317 318 320 320 319 318 318 320 323 324 325 326 327 329 329 329 329 329 329 329 329 329 329 329
317 317 317 316 315 315 316 318 319 320 320 320 320 320 321 320 319 317 315 315 316 318 320 319 318 317 316 314 314 313 312 312 311 311 311 310 310 310 309 310 310 310 311 310 308 308 307 307 306 306 305 305 305 305 306 307 308 308 308 309 311 312 315 317 319 319 319 317 317 318 320 323 324 326 327 326 327 326 326 326 327 326 326 325 326
315 315 314 313 312 311 313 317 318 318 318 319 319 319 319 319 318 317 316 315 314 315 315 314 314 313 312 312 311 311 310 310 311 310 310 308 307 308 308 309 309 308 309 309 307 307 307 306 306 305 305 304 303 303 304 305 306 307 308 308 308 309 310 312 314 315 316 317 316 315 316 318 320 323 324 325 325 325 325 325 325 324 324 323 323
314 313 312 311 310 308 310 314 315 313 313 313 314 314 315 317 318 318 315 313 311 312 312 311 310 308 307 307 306 305 305 307 307 308 307 306 307 306 306 308 309 307 307 308 308 307 306 306 306 305 304 304 303 302 303 304 305 306 307 308 308 308 308 308 309 309 310 311 313 314 314 315 315 317 319 320 321 322 323 323 323 323 323 323 322
313 313 312 311 310 308 308 310 309 307 306 306 306 306 307 310 313 312 310 308 309 309 309 307 305 303 303 303 302 302 303 304 305 306 307 307 308 307 306 307 308 309 311 311 308 307 306 306 305 304 304 304 303 302 303 304 304 305 306 306 307 307 307 307 307 308 308 308 309 310 311 313 314 314 314 315 315 315 316 316 316 317 317 318 319
313 312 312 311 310 309 309 309 308 305 304 303 303 303 303 304 305 305 305 306 308 307 306 304 303 303 303 303 303 304 305 306 306 307 308 308 308 309 309 307 307 312 316 314 309 307 307 305 304 304 303 303 302 301 302 303 303 304 304 305 305 305 306 307 307 307 307 307 307 308 308 309 310 311 311 311 312 311 312 311 311 312 312 313 314
311 311 312 311 311 311 311 310 310 308 306 304 303 302 302 302 302 302 304 306 307 306 305 305 305 305 305 305 306 306 307 307 307 307 308 308 308 308 309 309 307 309 312 312 310 308 306 304 303 303 302 301 300 298 299 300 301 302 303 304 304 304 304 305 306 306 307 307 307 307 307 307 308 309 309 309 310 310 310 310 311 311 312 312 312
311 310 311 312 311 312 312 311 311 311 310 307 304 303 303 303 302 302 304 305 305 307 307 307 306 305 305 307 307 307 308 308 307 307 307 307 308 308 309 308 307 306 307 308 309 307 305 304 302 301 300 298 296 296 296 297 297 299 300 301 302 303 303 304 304 304 305 306 306 306 306 306 307 307 308 308 308 309 309 309 310 310 311 312 313
310 309 310 311 312 312 312 312 312 312 312 311 308 305 304 305 304 303 304 304 304 305 307 307 307 305 304 305 306 307 308 308 307 307 307 307 307 307 307 306 306 306 305 305 306 306 304 303 301 299 296 295 295 295 295 295 296 296 297 297 299 300 301 302 301 302 303 303 304 304 304 305 305 306 306 307 307 308 308 308 308 309 309 310 312
310 309 309 310 311 312 312 312 312 312 313 313 311 308 306 306 307 306 305 305 305 305 305 306 307 307 306 305 306 305 306 306 306 306 306 306 306 306 306 306 305 306 305 303 303 303 302 301 298 296 295 295 295 295 296 296 296 296 296 296 297 297 298 298 298 299 300 300 301 301 302 302 303 304 305 305 306 306 307 307 307 307 308 308 309
312 310 309 310 312 313 312 312 312 313 312 312 312 310 308 308 308 308 307 306 306 305 305 305 306 307 307 307 307 306 306 305 304 305 305 306 306 306 306 306 306 305 303 301 300 300 299 297 295 295 295 296 295 296 296 296 296 296 296 296 296 296 296 297 297 297 297 298 298 299 299 299 300 300 301 302 303 304 305 306 306 307 307 307 308
314 313 311 311 311 313 313 312 312 312 312 312 312 311 310 310 310 310 309 308 307 306 305 305 305 306 307 307 307 307 307 307 306 305 305 305 305 306 306 306 305 304 301 300 299 298 296 295 295 295 296 296 296 297 296 296 296 296 296 296 296 296 296 296 296 296 296 297 297 297 298 298 298 298 298 299 300 301 302 303 305 305 306 306 306
315 315 314 312 311 312 312 312 311 311 311 312 312 311 311 311 312 311 311 310 309 308 308 308 307 307 306 307 307 306 306 306 306 306 305 305 304 305 305 305 304 303 301 299 299 298 295 295 295 296 296 296 297 297 297 297 297 296 296 296 296 296 296 296 296 296 296 296 297 297 297 297 297 297 297 297 297 298 299 300 301 303 304 305 305
316 315 315 314 314 313 313 313 313 312 311 311 311 312 312 312 312 312 311 311 311 310 310 310 310 309 309 308 308 307 307 307 307 307 306 305 305 305 305 305 304 303 301 300 299 298 297 296 296 296 297 297 297 297 298 298 297 297 297 297 297 297 296 296 296 296 296 296 296 296 296 296 296 296 296 296 296 297 297 298 298 299 301 302 303
317 316 316 316 315 315 315 315 315 315 314 312 311 311 311 312 312 312 312 311 311 311 311 310 311 311 310 310 310 309 309 308 308 308 307 307 306 306 305 304 304 302 301 300 299 299 298 298 297 297 297 298 298 298 298 298 297 298 298 297 297 297 297 296 296 296 296 296 295 295 296 295 295 296 296 296 296 296 296 297 297 297 298 299 301
318 318 317 317 317 316 316 316 316 316 316 315 314 313 313 312 312 312 312 312 311 311 311 311 311 311 311 311 311 311 310 309 309 308 308 307 307 306 305 305 303 302 301 300 299 299 299 298 298 298 298 298 298 298 297 297 297 297 297 298 298 297 297 296 296 296 296 295 295 295 295 295 295 295 295 295 295 295 295 296 296 296 297 297 298
318 318 318 318 318 317 317 317 317 317 317 317 316 316 315 315 314 314 314 313 312 312 313 312 312 312 313 313 312 311 311 311 310 309 309 308 308 307 306 305 303 302 301 300 300 300 299 299 299 298 298 298 298 298 297 297 297 297 297 297 297 297 297 296 296 296 295 295 295 294 294 294 294 294 294 294 294 294 295 295 295 296 297 297 297
319 318 317 317 317 317 318 317 317 317 317 317 317 317 316 316 315 315 316 315 315 315 317 316 315 315 316 316 314 312 312 311 310 310 309 309 308 307 306 305 304 302 301 301 300 300 299 299 299 299 299 299 298 298 297 297 297 297 297 296 296 296 296 296 296 295 295 294 294 294 294 293 294 294 294 294 294 294 294 295 296 297 298 297 298
317 317 317 317 316 317 318 317 318 318 317 317 317 317 317 317 317 317 317 317 316 317 318 318 318 317 317 318 316 314 313 312 311 310 309 309 308 307 306 305 303 302 301 301 300 300 300 300 299 299 299 299 298 297 297 297 297 297 297 296 296 296 295 295 295 294 294 293 293 293 293 293 293 293 293 293 294 294 294 295 297 298 298 299 299
317 317 316 316 316 317 318 318 317 317 317 317 317 317 317 317 317 317 317 317 317 317 318 318 318 318 318 318 317 315 314 314 313 310 309 309 308 307 305 304 302 301 301 301 300 300 300 300 299 299 298 298 298 297 297 297 297 297 297 296 295 294 294 293 294 294 293 293 292 292 293 293 293 293 293 294 294 295 295 296 297 298 298 299 299
317 317 317 316 316 317 318 318 316 316 316 317 317 318 319 318 318 318 318 319 319 319 319 319 319 319 318 318 317 316 315 314 313 311 309 308 306 305 304 302 301 301 301 301 300 300 300 299 299 298 297 297 297 297 297 297 297 296 296 295 294 293 292 292 292 292 292 292 292 292 293 293 293 292 293 294 294 295 295 295 296 297 297 298 298
318 318 318 318 317 318 318 317 316 317 317 317 318 319 319 319 319 319 319 319 320 320 320 319 319 318 317 316 316 316 315 314 313 311 308 307 305 304 303 302 301 301 301 301 300 300 299 299 298 297 297 297 297 297 296 296 295 295 294 293 293 292 292 291 291 291 292 292 291 291 292 292 292 292 293 293 294 294 295 295 295 296 296 297 297
318 318 318 318 318 318 318 317 318 318 317 318 319 318 317 316 317 317 317 317 318 319 319 319 318 318 316 315 314 314 313 313 311 309 307 306 305 303 302 301 301 301 301 301 300 299 299 298 297 297 297 297 296 296 295 294 293 293 293 292 292 292 292 292 291 291 291 291 291 291 292 292 292 292 292 292 293 294 294 295 295 295 295 296 297
318 318 318 318 318 317 318 318 318 318 319 319 318 315 314 314 313 313 313 315 316 317 318 317 317 316 314 313 312 311 311 310 308 306 305 305 303 302 301 301 301 301 301 300 299 299 299 298 298 297 297 296 295 294 294 293 292 292 292 292 292 292 291 291 291 291 291 291 291 291 291 292 292 292 292 292 292 293 294 294 294 295 295 296 297
317 317 318 318 318 318 318 319 319 320 320 318 315 314 314 314 312 311 312 314 315 315 315 314 313 313 311 310 309 309 308 307 305 304 304 303 302 301 301 301 301 300 299 299 298 298 297 297 296 296 295 294 293 293 293 292 292 292 292 292 292 292 291 291 291 291 291 291 291 291 291 292 292 292 292 292 292 293 293 293 294 295 296 296 296
316 316 316 315 316 316 317 317 318 319 319 316 314 314 315 314 312 311 312 314 314 313 312 311 310 309 309 307 307 306 305 304 304 303 302 302 302 302 302 300 299 299 298 297 297 296 296 295 294 294 293 293 292 292 292 292 292 291 291 291 291 291 291 291 291 291 291 291 291 291 291 291 291 291 292 292 292 292 292 292 294 295 295 295 295
314 314 314 314 314 314 314 314 315 316 316 315 314 314 314 313 312 312 312 313 312 311 310 308 307 306 305 304 304 304 304 303 303 302 302 302 302 301 300 299 298 297 297 296 295 295 294 293 293 292 292 292 292 292 291 291 291 291 291 291 291 291 290 290 291 291 291 291 291 292 292 291 291 291 291 292 292 292 292 293 294 295 295 294 294
311 312 312 313 312 312 312 312 313 314 314 313 313 313 313 313 312 311 312 312 310 309 307 305 304 303 303 302 302 302 302 302 301 301 301 300 300 299 299 298 297 296 295 295 294 293 293 292 292 292 292 292 291 291 291 290 290 290 290 290 290 290 290 290 290 290 290 291 291 291 291 291 291 291 291 292 292 292 292 293 293 293 293 293 293
Wind_Speed
9 8 7 6 5 5 4 3 3 3 3 3 3 2 3 3 1 1 3 4 3 4 5 5 4 4 5 4 5 6 7 8 8 7 5 3 2 1 1 2 1 3 3 3 4 4 5 6 5 5 5 5 6 4 2 2 2 2 1 2 2 3 2 2 2 3 3 4 4 5 6 7 7 7 7 7 8 8 8 8 9 10 10 10 10
10 9 8 7 6 6 5 4 3 4 3 3 2 2 2 2 1 1 4 4 3 3 4 4 5 5 5 3 5 6 6 7 8 7 5 3 2 1 1 2 1 2 3 3 3 3 3 5 6 5 5 4 5 5 4 3 3 3 2 1 2 2 2 1 1 1 1 2 3 4 5 5 5 5 6 6 7 7 7 8 8 9 9 9 10
10 10 9 9 8 7 6 5 4 3 3 3 3 3 2 2 1 1 3 3 2 2 2 3 3 4 4 3 5 5 3 6 8 7 5 4 3 2 1 1 2 1 3 3 3 3 2 3 6 5 5 5 5 5 6 6 5 4 3 3 3 2 2 2 1 1 0 0 1 2 3 3 3 4 4 5 5 5 6 7 7 7 8 9 9
11 11 10 10 9 8 7 5 4 4 4 4 4 3 3 2 2 1 2 3 2 1 1 0 1 2 2 2 4 5 4 5 8 6 5 4 3 2 1 1 2 2 3 4 3 4 4 2 3 4 4 5 6 6 6 5 6 5 4 5 5 4 4 3 2 2 2 1 1 1 2 2 2 3 3 4 4 4 5 5 6 7 8 8 8
12 11 11 10 9 9 7 4 4 5 6 6 5 4 4 3 3 3 3 4 3 3 2 2 2 1 1 1 3 5 6 7 8 7 6 5 4 3 2 1 1 2 3 3 3 4 5 4 3 3 3 4 6 6 6 5 6 6 6 6 6 5 5 5 3 3 2 3 2 1 1 1 1 2 3 3 3 4 4 5 5 6 7 7 8
11 10 11 10 10 9 6 5 5 5 6 6 5 5 5 5 4 3 4 4 4 4 3 3 4 2 1 3 4 5 8 9 9 9 7 7 6 5 4 3 3 3 3 3 3 4 5 5 4 3 3 3 5 6 6 6 6 6 6 7 7 6 6 5 5 4 4 3 3 3 2 2 1 1 1 2 2 3 3 4 4 4 6 7 7
10 9 10 10 11 8 6 9 9 7 6 6 6 7 7 6 5 4 4 4 5 5 4 4 5 5 5 6 6 7 8 9 10 10 9 9 8 7 6 5 4 4 5 5 5 5 5 5 5 5 5 3 3 5 5 6 6 5 6 7 7 6 5 5 5 5 5 5 4 4 4 3 3 2 1 1 2 2 2 3 3 3 5 5 5
9 9 9 9 8 6 7 10 11 8 6 6 7 7 8 7 5 4 5 6 5 5 5 7 8 8 10 10 9 8 8 9 10 11 11 10 9 8 8 7 6 6 6 6 7 7 6 6 6 6 7 6 4 4 4 5 5 4 5 6 6 7 6 6 6 6 6 6 6 6 5 5 5 4 3 2 2 2 2 2 2 3 3 4 4
8 9 10 9 8 8 9 10 11 10 7 6 7 7 7 7 5 4 5 7 8 7 7 8 10 11 13 12 10 10 9 7 7 7 8 8 8 8 9 9 8 8 7 8 8 9 9 9 8 8 9 8 7 6 5 6 6 5 6 6 5 6 7 6 6 7 7 7 7 7 7 7 7 7 5 4 3 3 3 3 3 3 2 2 3
7 9 10 10 10 10 10 10 12 12 9 7 7 7 7 8 7 5 5 7 9 11 10 10 10 11 12 9 8 9 7 5 4 4 4 4 6 8 9 9 9 9 9 9 9 10 11 12 12 11 11 10 10 9 7 6 6 6 7 7 6 6 7 7 6 7 9 9 8 7 7 7 8 8 7 6 5 4 3 3 3 3 3 2 3
5 7 8 9 10 11 11 10 10 11 10 7 7 8 7 7 8 8 8 8 10 13 11 10 10 11 9 6 6 6 5 4 4 6 5 5 7 9 9 9 8 9 8 8 8 10 12 15 16 15 14 13 13 12 10 9 8 7 8 8 9 8 8 8 8 6 7 11 11 9 8 7 7 6 7 8 7 5 4 4 4 4 3 3 3
3 5 5 6 8 9 10 9 8 9 8 6 6 7 7 7 8 9 9 7 10 12 11 11 11 13 11 6 6 6 5 4 3 3 3 4 7 9 9 8 7 7 6 6 6 7 8 11 15 15 15 15 15 15 14 13 12 11 10 9 10 10 10 10 10 9 7 8 11 12 11 9 8 7 6 8 8 7 6 5 5 4 4 3 3
2 4 4 4 5 5 7 8 7 7 6 5 5 6 6 7 7 8 8 8 11 12 11 11 10 12 10 7 6 7 6 5 3 2 2 2 4 7 9 9 8 7 7 7 7 7 8 11 14 13 12 13 14 14 14 15 16 15 15 14 12 11 12 11 12 12 10 8 8 11 13 12 11 9 8 7 8 8 8 7 6 5 4 3 3
2 3 3 3 4 3 5 6 6 5 5 5 6 6 7 7 6 6 8 10 12 13 13 11 7 9 10 7 5 6 6 5 4 3 2 2 2 3 5 7 7 4 4 6 6 6 8 11 13 12 11 13 14 14 13 12 14 14 16 17 15 14 14 13 14 13 13 12 10 10 12 12 11 11 10 9 8 9 9 8 7 6 5 4 4
4 4 4 4 4 3 4 5 4 4 4 5 6 7 8 8 7 8 10 12 13 13 13 9 6 7 8 5 2 3 4 4 4 3 3 4 3 2 2 2 3 3 1 2 4 4 5 6 8 9 10 11 12 12 12 11 12 13 14 14 14 15 16 17 17 16 15 15 15 13 12 11 11 10 10 10 9 10 9 9 7 7 7 6 5
5 5 5 5 4 4 4 3 3 4 4 4 5 4 5 7 9 10 11 11 11 10 8 6 6 6 4 1 1 2 1 0 2 4 4 5 5 4 4 4 3 3 2 2 3 3 4 5 6 7 7 8 10 11 11 11 12 13 13 12 11 12 14 16 18 18 18 17 17 17 15 13 12 11 10 10 10 10 10 10 9 8 8 7 8
4 4 5 4 4 4 3 3 3 3 3 4 3 2 3 5 8 10 11 11 9 6 4 3 5 5 3 3 2 1 1 1 2 3 4 4 5 4 3 3 2 1 3 4 4 3 4 5 6 6 5 6 8 9 10 11 13 14 14 12 12 12 12 13 15 17 18 19 18 18 18 16 15 14 12 11 11 11 11 12 11 11 9 9 10
3 4 4 3 2 3 4 4 4 3 4 5 3 4 4 4 7 9 10 11 9 7 6 4 4 5 4 3 3 2 2 2 1 1 3 4 5 5 4 4 4 4 5 5 4 4 5 5 5 5 4 6 7 8 8 8 11 13 13 12 12 13 13 13 14 15 15 16 17 18 19 18 17 15 14 13 12 12 12 13 13 13 12 11 12
3 3 3 2 2 2 3 4 5 4 4 6 6 6 4 4 6 6 8 10 8 8 8 7 7 5 4 5 6 6 6 4 2 2 3 4 8 11 12 10 9 8 9 9 9 8 7 6 5 5 5 6 6 6 6 7 9 10 10 10 11 11 12 13 14 13 14 13 14 17 18 19 19 16 15 17 15 13 14 14 14 15 15 14 14
5 3 3 3 2 3 3 3 4 4 4 5 7 6 5 5 6 6 8 9 8 7 7 9 9 7 7 8 9 8 6 5 3 3 3 2 4 9 14 16 16 16 16 16 15 14 13 12 10 8 7 7 7 6 7 8 9 9 7 8 10 10 10 13 13 13 13 11 11 12 15 17 20 19 16 16 17 16 15 16 16 17 17 17 15
6 4 3 3 1 2 3 3 5 5 6 7 8 7 5 5 5 5 7 7 6 5 4 7 8 6 7 8 7 7 6 5 5 6 5 3 1 1 7 13 17 20 21 21 20 20 19 18 17 15 14 13 12 12 11 10 8 6 5 6 9 10 10 11 12 13 12 9 9 10 11 14 16 17 16 16 17 16 16 17 18 19 20 20 18
6 4 4 4 3 2 3 4 6 7 8 9 9 9 7 6 6 5 5 5 5 4 3 6 6 5 6 6 5 5 5 5 6 7 7 6 4 1 4 8 10 15 20 22 22 21 20 20 19 19 19 18 17 17 16 15 13 11 9 7 7 7 7 7 8 10 9 6 6 5 4 6 7 10 13 15 17 16 15 17 18 19 20 20 19
5 5 6 6 5 4 3 5 8 9 10 10 9 9 8 8 8 8 8 7 7 7 8 8 8 7 7 5 5 5 6 7 7 7 6 6 5 3 4 7 8 10 13 17 21 22 21 20 20 20 20 19 19 18 18 18 16 15 13 11 9 8 7 7 8 8 9 9 8 6 6 5 3 2 5 8 13 14 16 17 17 18 19 18 19
5 6 6 6 5 4 4 5 7 8 8 8 8 8 8 8 10 11 11 11 11 11 11 11 11 12 11 9 9 10 10 11 9 9 8 7 7 5 4 5 6 7 8 10 15 20 22 21 20 20 19 19 18 18 17 17 17 16 14 13 10 9 8 7 7 8 9 11 10 8 7 6 6 4 2 1 5 9 13 14 14 16 18 18 18
6 6 6 6 4 4 4 5 7 7 7 7 7 7 7 8 9 10 12 13 13 12 14 14 13 14 14 12 11 11 11 11 8 9 9 9 9 7 5 5 6 6 7 9 11 15 19 21 20 19 19 19 19 17 16 16 16 15 14 14 13 11 10 8 7 7 7 9 10 10 8 6 5 4 3 1 1 4 6 8 9 11 12 13 14
6 6 5 5 3 3 4 6 7 6 6 6 6 6 6 7 8 8 10 11 11 12 13 13 13 12 11 11 10 10 11 10 9 9 9 10 10 8 5 7 8 8 8 9 13 14 13 17 19 19 19 20 20 18 17 15 15 14 13 14 14 14 13 11 10 10 9 8 8 8 8 7 6 5 3 2 2 4 5 6 7 8 9 10 11
7 6 6 4 2 3 5 7 7 7 6 6 7 7 7 7 7 7 8 9 9 11 11 11 12 11 10 11 11 12 11 11 11 12 12 13 13 11 8 6 5 7 6 7 13 15 13 12 16 19 19 20 20 19 17 15 15 14 12 13 14 14 14 13 12 11 11 10 9 7 7 6 6 6 5 4 4 5 7 8 8 10 11 12 11
7 7 6 4 3 4 6 7 7 7 7 7 7 7 7 8 8 8 9 9 9 11 11 11 12 13 13 13 14 15 15 14 14 15 15 15 14 14 13 9 6 3 3 4 6 10 13 13 14 17 18 18 18 17 15 15 15 15 14 14 14 15 14 13 13 12 12 12 11 10 9 7 6 6 6 6 6 6 7 9 9 10 11 12 13
7 7 6 5 4 5 6 6 7 7 7 8 8 8 8 8 8 9 10 10 11 12 12 13 15 15 15 15 16 17 17 15 16 15 14 14 13 13 14 13 10 5 1 2 2 4 10 13 13 15 16 17 17 16 15 14 14 14 13 14 15 15 14 13 13 13 12 12 12 12 12 10 9 7 7 6 6 7 8 9 9 10 11 12 13
7 8 7 6 6 5 5 5 5 5 6 6 7 7 8 8 9 10 11 11 12 13 12 13 15 15 16 16 16 16 15 14 14 13 11 11 10 11 11 11 12 9 5 2 1 3 7 10 12 13 15 16 16 15 14 14 13 13 12 12 13 14 13 12 13 12 12 12 12 12 11 11 10 9 8 8 8 7 7 8 9 9 10 11 11
7 8 8 8 6 6 5 4 4 3 4 4 5 7 7 8 9 10 11 11 11 13 12 12 14 14 14 15 14 14 12 11 11 10 9 9 9 9 9 9 11 11 9 6 2 3 6 8 10 11 13 14 14 14 14 14 14 13 12 12 11 11 11 12 12 12 11 11 11 11 11 10 10 9 9 8 8 9 8 8 9 9 9 9 10
8 8 9 9 8 7 7 6 5 4 3 3 4 5 6 6 7 9 10 10 11 12 12 12 12 12 12 13 12 11 9 8 8 8 8 9 9 9 10 10 11 10 10 9 5 3 4 5 8 10 11 12 13 14 15 15 15 14 13 13 12 11 11 12 13 12 12 12 11 11 11 10 10 10 9 9 9 9 9 9 9 9 9 9 8
8 8 9 9 9 8 8 8 6 6 6 5 4 4 4 4 5 7 8 8 8 9 10 10 10 9 10 11 11 10 8 7 7 6 7 8 8 9 9 8 10 9 9 10 8 5 3 4 6 9 10 11 13 16 17 17 16 16 15 14 13 13 13 13 14 14 13 13 13 12 12 12 12 11 11 10 10 10 10 10 10 10 10 9 8
9 8 9 9 9 8 9 9 9 8 7 7 7 6 5 5 4 5 6 6 6 7 7 8 8 8 7 7 8 8 7 6 6 5 5 5 5 6 6 6 8 8 7 8 7 5 3 4 5 8 10 12 15 17 18 19 18 17 16 16 16 15 15 15 15 15 14 14 13 13 13 13 13 13 13 13 13 13 12 12 12 11 11 10 9
10 10 10 11 11 10 9 10 11 11 10 10 9 9 8 7 6 5 5 5 5 5 6 6 6 6 6 5 5 5 5 4 4 4 4 4 3 4 5 5 6 7 7 8 7 5 5 4 6 9 10 12 15 17 18 19 18 17 18 18 17 18 18 18 18 17 15 14 13 13 13 14 14 14 15 14 14 14 14 14 14 14 13 13 11
9 9 10 11 12 12 11 11 11 12 13 12 12 11 10 10 9 8 7 6 6 5 5 5 5 6 6 5 5 4 4 3 3 3 2 2 1 2 3 4 5 6 6 8 9 8 6 6 6 8 11 12 14 16 18 18 18 18 19 20 19 20 21 22 22 22 18 15 14 14 15 15 16 16 16 16 15 15 14 15 15 15 15 15 14
9 8 8 8 9 10 11 12 12 12 13 14 14 12 12 11 12 12 11 10 8 7 7 6 6 6 6 6 5 5 5 5 4 3 2 2 1 0 1 2 3 4 6 7 9 9 8 7 6 7 10 12 14 15 18 20 20 20 21 22 21 23 26 25 25 24 19 17 18 18 19 19 19 19 18 17 16 15 14 14 14 15 16 16 17
10 10 9 9 8 10 11 12 14 14 13 14 15 14 13 12 12 15 16 15 12 11 10 9 9 9 9 8 7 7 7 7 6 5 5 4 3 2 1 0 1 3 4 6 8 9 8 7 6 7 9 12 14 15 17 20 21 21 24 26 25 26 29 29 29 26 19 19 22 23 24 25 25 23 21 19 17 16 15 15 15 14 14 15 16
9 9 9 10 11 13 14 15 16 17 16 15 14 15 14 13 13 16 20 20 17 14 13 12 11 11 11 11 11 11 10 9 8 8 6 5 4 3 2 1 1 1 3 5 6 7 8 7 7 8 10 11 13 14 16 18 19 20 25 28 29 31 31 31 32 27 21 21 25 27 29 29 28 27 24 22 20 18 16 15 15 15 14 14 15
14 13 11 11 13 15 17 18 18 19 18 16 16 16 15 14 15 16 20 23 22 17 15 15 14 13 13 13 14 14 13 12 11 10 9 8 7 6 5 4 3 2 2 3 4 6 6 6 7 8 10 12 13 15 16 18 19 19 21 23 25 30 32 33 31 26 23 25 28 31 33 31 29 28 25 23 21 19 18 16 14 14 14 14 14
19 17 14 12 13 16 19 20 20 20 19 19 19 19 17 18 19 19 19 22 23 20 18 18 18 17 16 16 16 16 16 15 14 12 11 10 9 7 6 6 5 3 2 2 4 4 5 5 6 8 11 13 14 16 17 18 18 18 20 20 22 25 29 33 31 23 21 26 31 35 34 31 29 27 25 23 21 19 18 15 12 14 15 14 14
21 20 17 14 15 18 21 21 21 22 21 22 23 21 20 19 20 19 19 20 21 19 18 19 19 18 18 18 18 18 18 17 16 14 13 12 10 9 8 6 5 4 3 3 3 3 4 5 6 7 10 12 12 13 15 16 16 18 20 22 23 26 28 31 30 25 23 27 33 36 35 30 27 26 25 23 20 18 15 12 12 14 14 14 14
23 22 20 18 19 22 21 19 18 20 22 23 23 20 18 18 18 18 18 18 18 17 16 16 17 17 17 18 18 19 20 19 18 16 14 13 11 10 7 5 4 4 4 3 3 4 5 5 6 7 8 10 11 12 13 15 17 18 20 21 22 24 24 22 21 24 27 28 30 33 33 29 25 24 24 22 18 16 13 10 11 12 13 14 15
21 21 20 20 21 22 19 16 16 19 22 21 19 17 16 15 15 16 16 16 15 13 13 14 14 14 15 15 16 18 19 19 18 17 15 14 12 9 7 6 6 5 4 3 4 5 6 6 7 7 7 8 10 11 13 15 17 18 20 21 21 21 21 18 17 22 26 26 25 27 31 29 24 22 23 20 16 15 13 10 10 10 12 14 16
18 19 18 18 18 18 17 15 16 19 20 18 15 12 10 9 10 11 12 12 11 10 11 11 12 12 13 13 14 14 15 16 17 16 16 15 12 10 9 8 7 6 5 5 6 7 7 8 8 8 8 8 9 10 12 13 16 18 20 21 21 20 19 19 19 23 24 22 19 22 27 28 23 20 21 20 17 16 14 11 11 11 11 14 15
16 16 16 16 16 17 17 16 17 17 16 14 11 8 5 5 5 6 7 7 8 8 8 9 9 10 10 11 11 11 12 13 13 15 16 15 13 11 10 8 7 6 7 7 7 7 7 7 8 8 8 8 9 10 12 13 14 16 17 18 19 19 19 19 20 23 22 19 16 16 20 24 23 19 20 22 20 17 15 14 13 11 10 13 14
13 13 12 13 14 14 14 14 13 12 11 10 8 6 4 2 2 3 4 5 5 4 5 5 6 6 6 6 7 7 8 10 12 15 15 13 12 11 9 7 6 6 6 6 5 6 6 6 6 7 8 9 10 11 12 14 14 14 14 15 16 17 19 20 21 23 22 18 16 14 16 20 21 20 21 23 21 18 17 16 14 10 9 11 13
9 9 8 9 10 10 11 11 10 9 9 8 7 5 4 2 0 2 2 2 1 1 1 1 2 2 2 2 3 4 7 10 14 14 12 10 9 8 7 6 6 5 4 4 5 5 5 6 7 8 8 10 11 12 13 13 14 14 14 15 16 17 18 19 21 23 21 19 19 17 16 18 20 21 22 24 22 20 19 17 12 8 8 10 12
9 9 8 8 7 7 6 7 6 7 7 7 6 5 4 2 1 2 2 1 1 2 2 2 2 2 2 1 1 4 8 11 12 10 8 7 7 7 7 6 4 4 3 4 5 5 6 7 7 7 8 9 10 12 12 12 13 13 14 16 16 17 16 15 15 17 20 22 21 16 14 16 19 22 23 23 21 20 20 16 10 7 8 10 12
10 10 9 9 8 7 5 5 5 5 6 6 5 5 4 2 1 2 3 2 3 3 3 4 4 4 5 5 4 6 8 9 8 7 6 5 5 6 5 5 4 4 3 3 4 5 6 6 7 7 8 10 11 12 12 12 13 13 15 16 17 17 16 14 13 16 20 21 15 10 12 16 20 22 22 21 19 18 14 9 7 9 12 14 15
11 11 10 10 9 7 6 4 3 4 5 5 5 4 4 3 2 2 3 4 5 5 5 6 7 7 8 8 7 6 6 6 5 5 4 3 3 3 4 4 4 3 3 4 5 6 6 7 9 10 11 12 13 13 13 13 13 13 15 16 17 17 17 17 16 15 14 11 9 12 16 18 18 19 18 17 15 12 7 6 12 17 17 18 18
Wind_Direction
220 220 228 238 241 233 221 223 236 251 269 310 330 337 331 334 324 206 157 139 111 101 107 97 98 111 116 149 163 155 168 179 184 191 196 208 217 221 185 177 182 157 168 190 188 194 198 198 205 216 223 199 184 192 206 242 217 175 95 45 66 91 95 106 117 107 97 101 106 108 109 110 109 111 111 109 108 107 104 102 103 106 106 109 110
222 223 233 245 252 248 234 228 237 249 265 293 300 303 326 343 341 183 158 148 129 113 108 100 101 101 97 133 170 164 168 180 184 187 194 210 216 218 193 191 209 175 197 218 188 204 219 199 204 219 227 217 199 195 195 204 207 197 203 286 338 26 45 61 122 137 110 106 106 113 116 116 115 116 114 114 115 112 111 108 109 111 109 113 117
225 229 239 247 253 253 244 236 241 251 264 274 268 270 299 328 325 185 180 180 170 141 111 104 108 101 85 106 156 166 173 184 184 187 194 206 216 217 208 201 230 228 249 270 199 202 262 213 204 219 227 225 217 209 210 209 202 196 212 245 277 300 327 355 358 325 282 106 110 124 121 119 121 120 117 121 123 117 118 117 114 117 115 113 113
230 234 241 244 249 252 245 243 259 267 270 270 262 256 270 296 298 236 223 222 220 230 228 187 112 96 84 95 144 167 174 181 185 191 199 206 214 221 242 225 247 255 261 282 237 209 246 247 213 229 233 226 223 224 231 222 208 210 229 246 257 268 277 299 322 331 329 310 283 152 126 121 125 123 120 123 128 124 123 121 118 122 121 117 116
237 237 241 242 246 244 239 252 277 275 277 275 263 251 248 263 282 286 265 241 238 250 255 248 245 313 50 124 158 174 175 179 187 193 205 215 217 222 241 253 259 276 273 280 263 230 240 248 238 253 253 232 227 228 232 226 220 221 226 240 251 264 272 269 275 302 319 320 301 262 242 174 140 133 129 123 130 133 131 127 125 126 125 123 121
239 240 242 242 243 237 225 236 244 253 273 269 247 234 227 233 252 278 282 260 247 247 249 245 228 216 170 162 174 180 180 186 194 199 209 221 224 225 229 233 244 262 275 279 278 259 248 246 242 256 277 257 237 233 232 231 236 233 225 237 249 263 276 266 258 272 278 290 294 282 278 248 208 167 143 134 138 140 139 138 131 132 136 132 124
243 245 244 241 240 232 214 216 217 223 253 245 218 218 217 218 227 246 265 263 262 259 235 214 198 176 162 163 167 174 183 190 199 203 209 219 224 228 229 229 237 251 264 274 281 277 266 257 248 251 266 277 258 243 238 236 240 240 233 238 245 259 280 267 254 267 268 267 277 285 284 263 247 244 219 174 160 156 152 154 147 142 146 143 134
248 245 237 234 234 229 219 216 215 218 234 230 216 218 219 219 220 232 243 236 242 252 224 195 179 160 145 144 152 163 176 184 197 207 214 222 223 228 235 234 235 244 255 265 275 280 280 273 264 258 259 266 267 262 256 240 236 239 241 241 234 244 264 260 247 252 261 265 272 282 282 270 266 261 242 221 194 180 177 178 171 161 158 157 154
241 236 229 228 232 230 225 223 225 222 220 231 232 226 227 227 220 228 236 228 226 224 208 186 171 152 135 135 143 143 141 147 168 195 210 222 228 233 236 234 238 244 251 260 270 278 283 282 278 271 265 265 266 270 276 255 244 246 248 252 249 250 261 264 248 237 244 258 269 281 285 278 280 279 263 247 237 213 195 188 181 178 183 180 176
239 235 230 228 230 231 229 228 230 229 225 231 240 238 237 231 222 221 214 211 218 214 202 187 172 151 139 152 167 154 146 149 171 205 221 240 245 244 241 238 246 253 259 263 269 275 282 285 283 277 272 271 270 273 278 270 261 255 248 251 263 268 263 263 257 238 235 243 255 275 283 280 283 282 273 262 252 240 223 202 189 182 189 195 194
242 232 230 228 228 231 233 231 232 234 229 229 243 246 240 229 221 226 220 205 210 215 209 193 164 134 134 164 180 169 175 193 218 231 238 249 248 252 254 252 256 258 262 268 274 278 282 284 282 278 276 273 272 273 276 277 274 269 261 255 255 258 254 251 256 253 237 232 237 253 266 271 277 277 271 266 259 252 244 224 206 193 189 194 201
223 209 213 224 230 233 236 235 232 229 228 237 255 247 236 235 232 234 233 209 198 202 199 186 147 114 119 140 140 130 124 138 169 203 210 230 238 249 257 259 265 265 269 275 283 290 291 289 282 273 272 273 273 272 273 276 275 273 271 265 257 256 253 249 251 259 259 241 230 234 249 260 265 267 266 264 261 254 247 241 229 215 200 196 204
204 183 176 207 222 229 236 235 228 225 230 242 254 246 237 243 244 236 224 198 186 183 179 179 146 113 117 121 115 108 101 115 138 162 171 193 221 242 250 256 265 274 284 285 293 306 298 284 277 271 267 267 269 273 276 278 278 277 275 273 269 262 257 256 256 253 257 262 241 228 238 250 254 259 262 261 260 257 252 249 247 242 232 221 214
144 148 148 175 190 201 217 222 228 235 236 232 237 244 241 239 235 213 197 192 188 178 171 175 164 141 138 122 98 97 97 110 128 147 178 189 194 223 241 251 257 267 299 310 322 319 293 276 275 281 278 268 266 269 276 286 287 284 280 278 277 274 271 268 264 256 253 259 255 237 237 246 251 253 257 259 257 258 259 257 255 254 254 249 238
113 114 117 131 149 168 186 195 215 226 229 229 225 225 225 223 211 187 183 188 186 181 177 174 167 148 137 130 119 108 97 100 118 130 159 174 163 146 152 190 215 211 197 8 5 331 303 301 299 295 288 282 277 273 278 289 292 290 287 284 281 281 281 277 273 269 263 258 254 248 241 245 253 254 253 254 254 256 258 259 259 258 261 263 258
115 107 99 105 123 138 151 157 172 189 202 212 210 213 218 217 207 191 185 185 183 188 193 178 160 142 118 107 101 98 99 114 119 120 140 154 146 133 132 142 156 160 144 36 10 331 316 335 335 319 305 303 300 293 290 281 276 281 285 286 287 288 288 287 286 282 275 269 262 256 248 245 251 255 256 253 249 253 256 258 261 260 259 262 262
116 108 89 79 101 121 131 137 149 165 177 181 190 220 221 220 209 196 198 206 203 205 210 165 156 164 153 121 84 55 271 225 117 113 127 135 136 135 126 114 111 64 17 9 12 359 348 357 360 357 353 340 330 320 311 290 275 277 280 287 292 292 294 297 299 295 287 280 272 264 258 253 248 248 255 258 253 251 254 259 261 262 258 256 259
126 115 87 57 67 115 124 126 130 138 158 163 182 221 226 224 215 203 210 221 226 229 216 170 159 186 182 137 121 163 198 171 129 111 103 91 93 100 85 71 61 36 20 17 16 4 357 354 353 359 358 348 347 345 340 318 298 293 290 295 296 287 288 295 299 301 296 288 276 266 264 262 255 247 247 253 257 254 255 260 263 265 261 254 252
129 125 106 74 64 96 107 116 119 111 130 151 166 196 206 208 212 208 208 210 216 229 218 179 166 175 171 137 121 130 148 154 155 131 112 77 74 83 81 74 69 60 52 48 43 36 32 23 8 4 356 347 346 342 334 315 309 311 308 315 313 289 280 291 299 302 303 301 285 267 263 262 259 254 246 245 250 255 258 261 263 265 263 256 251
122 123 135 124 88 82 84 125 138 108 98 125 142 159 171 180 190 188 191 200 209 223 217 191 180 164 146 131 116 118 125 129 121 111 122 102 68 79 82 78 75 73 70 66 64 63 61 58 54 48 40 38 35 20 356 327 313 310 311 324 324 309 302 306 310 315 315 317 309 286 273 267 261 258 253 244 244 249 255 259 262 265 264 259 253
118 118 138 145 118 81 73 113 148 127 110 118 126 133 139 153 162 165 173 187 197 209 215 195 192 180 154 137 120 114 103 100 103 94 93 104 104 70 81 79 76 75 75 73 70 70 70 70 71 69 66 62 57 50 40 25 6 346 329 324 319 317 323 322 322 327 326 326 331 316 287 274 266 260 259 254 249 247 249 253 255 258 260 258 255
116 124 144 153 154 123 89 109 134 133 129 127 126 126 119 118 124 132 144 154 159 153 145 164 180 182 169 158 138 123 104 100 99 89 84 86 100 95 67 78 79 76 73 69 66 66 67 69 70 68 65 62 59 57 54 51 49 43 36 24 356 339 336 341 348 352 355 8 22 11 316 285 271 258 257 259 257 254 252 254 254 254 256 258 260
124 135 146 146 144 141 126 125 134 138 140 136 127 121 114 110 107 105 110 114 117 117 120 131 140 143 148 148 132 115 104 101 94 92 94 92 104 103 69 86 96 85 73 66 61 60 60 61 61 59 58 57 57 58 58 57 56 51 46 42 34 23 18 23 32 35 36 40 51 54 41 38 33 300 269 262 260 258 259 260 260 260 261 264 266
140 145 146 145 146 145 146 145 143 142 143 139 128 120 115 112 107 104 102 102 105 110 113 113 112 114 116 111 106 100 94 93 88 87 92 100 112 109 74 86 97 85 80 77 65 57 54 53 53 51 49 49 49 51 54 55 55 53 49 46 42 35 34 40 49 55 52 45 45 44 37 43 49 43 36 296 257 256 262 265 264 263 265 267 268
155 155 153 152 154 152 156 154 147 144 142 138 132 128 126 122 116 112 107 104 104 107 110 110 107 105 107 105 101 97 90 84 81 83 88 95 102 100 82 78 84 81 78 76 70 62 53 47 46 46 43 41 39 40 42 45 48 49 49 48 45 40 35 29 23 26 36 41 43 43 37 29 32 44 58 47 239 250 270 277 272 267 269 273 274
164 165 164 158 154 152 161 159 154 153 152 152 148 141 141 137 131 125 116 111 111 111 112 111 107 104 106 107 102 99 95 91 89 89 90 90 86 92 105 88 75 75 75 69 65 62 51 43 41 40 39 37 34 34 35 37 39 39 41 45 46 45 41 34 26 21 21 21 25 31 32 31 29 29 23 353 298 275 281 283 277 274 274 275 278
173 174 173 166 156 146 152 156 159 160 158 159 156 154 157 154 149 142 129 125 125 121 118 113 110 108 109 110 109 106 104 104 100 91 87 84 79 79 98 112 82 61 62 68 62 53 45 41 38 34 34 34 32 32 34 37 39 37 38 43 44 44 43 41 39 36 33 29 25 20 12 13 16 15 10 346 321 299 290 286 280 275 273 272 273
184 186 181 176 173 156 148 147 149 147 145 144 141 143 152 154 156 151 138 136 134 125 122 118 114 113 112 112 111 109 107 105 102 96 89 85 81 75 76 91 108 88 41 50 55 45 38 36 35 30 27 28 29 29 31 36 40 39 41 44 44 43 42 43 45 45 44 41 39 36 28 17 5 354 348 335 321 312 303 297 291 283 278 275 272
197 201 194 187 184 170 155 146 143 137 136 138 135 134 138 142 147 143 137 137 132 126 123 118 113 113 113 112 110 108 109 107 102 100 95 90 87 81 73 74 85 105 116 41 38 40 35 31 30 25 19 19 22 22 23 30 35 36 40 43 43 42 40 41 44 44 45 43 41 41 40 39 33 21 9 354 339 326 317 312 308 300 292 284 277
207 209 209 202 194 190 180 161 148 140 139 140 139 140 140 140 140 136 136 138 132 127 124 116 112 113 112 111 111 109 109 109 105 101 99 95 92 89 82 76 76 86 110 117 71 48 43 34 28 20 12 12 15 16 19 22 24 25 29 33 34 33 31 33 37 38 39 39 38 37 36 37 37 35 28 20 12 359 341 331 327 320 311 300 286
220 216 215 212 208 208 207 196 180 163 153 148 148 152 149 143 141 136 136 139 133 128 125 118 113 115 114 113 114 115 113 110 104 99 96 96 98 97 94 88 82 82 91 101 96 53 50 38 27 18 11 10 11 14 20 21 19 17 16 18 19 15 14 17 20 20 22 24 26 26 27 27 26 25 22 16 12 7 359 350 343 338 332 320 304
227 223 219 217 218 222 223 222 222 222 210 189 172 171 165 152 144 138 136 138 134 129 128 126 120 118 117 117 116 117 116 112 104 99 96 96 99 103 102 97 92 87 85 90 98 92 66 37 20 16 14 12 13 16 21 22 22 19 15 13 9 2 1 4 3 1 1 1 2 3 4 6 9 9 7 3 360 358 355 353 349 346 344 338 326
235 234 226 222 223 229 232 235 239 242 239 233 222 209 202 185 161 150 144 141 137 131 130 131 131 129 122 118 117 115 113 112 108 103 101 101 101 103 103 96 93 90 83 88 103 112 82 37 19 19 18 18 19 20 20 19 20 20 18 16 13 8 4 2 358 353 349 346 345 345 345 346 347 347 347 345 343 342 341 342 342 341 342 341 337
241 244 238 230 229 234 237 239 242 244 244 240 237 235 230 223 205 182 168 159 153 147 141 138 139 143 137 123 120 122 116 109 108 108 106 106 105 101 94 82 79 78 69 76 98 113 89 51 33 29 25 24 24 24 22 21 20 19 19 19 19 18 14 10 5 358 352 347 344 342 340 339 338 337 335 332 330 328 325 326 327 328 329 330 330
231 236 240 237 234 237 241 243 243 242 239 237 239 242 242 242 239 223 205 195 185 175 167 160 156 160 161 150 140 140 139 124 113 114 114 108 97 81 73 58 52 55 51 48 61 80 75 55 37 34 32 27 24 24 21 20 20 18 18 18 17 17 15 12 9 5 1 357 354 351 349 346 343 340 336 332 327 322 318 315 313 314 316 317 318
228 228 236 241 242 243 244 247 249 246 244 240 240 245 250 255 257 252 244 234 227 221 210 197 187 183 182 179 174 169 168 168 151 137 133 127 103 62 54 42 33 36 34 28 32 44 53 50 41 34 30 26 22 18 14 13 13 13 13 11 9 9 8 8 7 5 4 4 1 358 355 353 350 346 343 338 333 327 320 315 309 306 305 306 307
229 225 226 235 246 254 256 259 258 255 253 249 248 249 253 261 267 267 263 256 253 251 244 243 237 224 217 210 202 199 198 202 203 197 197 198 192 148 52 45 31 24 19 18 21 26 32 39 42 34 24 20 18 14 9 6 5 4 4 3 3 2 360 0 3 2 1 0 358 354 351 350 348 346 344 341 337 333 328 323 316 307 301 299 298
228 234 236 238 252 266 271 274 273 269 264 258 257 258 258 265 275 281 277 267 262 263 258 256 257 254 250 243 235 231 227 224 222 216 211 211 213 217 206 109 45 26 18 16 17 16 18 22 27 25 18 14 11 9 6 4 2 0 357 356 356 356 354 354 356 358 358 354 351 347 345 344 344 343 342 341 339 335 331 330 326 319 308 298 294
234 246 249 254 267 271 268 271 276 276 271 266 268 270 269 271 277 286 287 279 270 267 267 264 263 263 262 259 256 253 249 247 240 231 226 224 228 236 241 249 290 3 9 12 11 8 8 10 9 8 8 8 5 3 2 1 2 0 357 354 350 348 349 349 349 351 351 347 344 341 340 340 341 342 342 343 342 338 334 334 333 328 318 304 295
241 249 256 263 271 270 265 266 270 274 275 278 284 285 279 275 273 278 284 282 275 270 271 272 268 267 271 270 265 261 260 259 253 247 245 239 235 233 233 242 256 281 337 0 359 354 355 0 360 355 353 354 354 354 354 358 360 359 357 353 345 342 342 342 343 346 343 340 338 336 337 339 340 342 344 345 346 343 338 339 338 333 324 313 303
239 243 250 256 262 265 266 265 263 265 271 279 285 284 277 274 274 274 277 277 274 272 274 275 271 270 275 275 268 263 262 261 257 253 250 248 246 243 240 242 246 256 297 325 333 338 343 345 344 340 339 341 346 348 349 353 354 349 345 344 340 338 336 335 338 342 339 336 334 333 335 340 340 341 345 347 348 345 341 344 348 342 334 327 317
236 237 237 241 251 259 261 260 262 263 264 269 275 277 273 271 273 274 274 273 271 272 273 273 271 270 272 272 268 263 261 261 258 253 248 244 243 246 251 252 250 263 287 303 315 326 331 327 324 325 326 330 337 340 339 341 340 336 336 338 336 335 335 335 336 336 335 335 334 331 332 338 340 340 344 348 349 347 345 351 357 352 347 343 334
233 234 232 232 240 248 252 255 264 268 264 264 271 275 272 269 268 268 268 268 266 266 266 267 270 271 273 276 273 266 263 262 258 251 244 237 233 234 236 231 235 258 278 297 312 311 307 301 299 305 309 313 320 324 326 327 327 328 332 332 331 331 333 334 328 324 329 335 334 329 328 333 339 339 341 348 351 349 350 354 355 357 356 349 342
228 229 225 223 228 239 247 249 251 254 255 260 269 271 268 265 264 262 260 260 260 260 261 262 265 268 271 274 273 270 268 264 258 248 235 223 218 216 211 212 225 240 255 285 297 291 286 284 284 286 287 293 303 310 315 318 319 322 325 325 326 326 325 321 311 311 323 334 334 326 323 329 338 339 339 347 352 348 347 343 339 344 348 345 342
225 223 219 218 222 230 239 244 245 246 250 258 263 260 255 253 254 254 254 256 258 258 259 261 263 266 268 269 270 272 271 265 256 241 222 209 206 207 209 216 225 236 261 282 281 274 273 274 275 276 278 285 295 303 308 312 315 318 320 320 321 321 317 315 310 311 322 333 334 324 319 323 334 339 337 341 345 342 338 332 328 327 329 333 335
229 225 222 224 227 229 234 244 252 252 250 248 240 226 221 230 245 254 258 262 263 261 261 264 268 273 276 277 276 274 271 264 247 222 206 202 204 206 207 213 227 252 272 274 268 267 271 273 273 278 284 291 298 304 309 311 314 316 316 315 316 316 314 312 310 312 320 329 333 324 311 317 331 336 333 336 338 336 333 328 325 320 317 323 326
230 229 227 228 231 233 238 243 246 241 231 220 208 192 184 192 236 277 281 281 277 269 267 270 275 281 287 290 281 269 259 241 216 200 197 199 200 200 205 221 242 257 261 262 268 277 281 281 284 290 296 301 305 310 313 315 315 314 310 308 310 310 310 309 308 311 316 322 332 323 298 307 327 330 327 333 335 330 328 329 326 317 310 317 322
208 210 208 210 214 220 226 227 224 215 204 198 196 190 180 173 10 349 320 303 299 266 262 276 291 298 308 301 273 245 222 203 191 190 195 197 198 207 221 232 240 242 245 260 275 283 287 289 292 295 298 303 309 313 316 316 314 310 306 304 306 308 308 306 306 310 313 317 324 317 293 299 322 324 320 327 330 323 323 326 324 314 310 317 322
171 169 166 166 169 175 186 193 193 192 194 200 205 198 182 171 25 27 37 35 71 84 80 76 73 80 97 112 184 194 189 184 183 188 197 204 214 225 228 225 222 231 247 268 281 289 297 300 302 305 307 309 311 312 314 313 309 308 305 304 307 309 307 303 302 305 309 312 318 314 290 295 317 321 316 320 321 317 318 323 323 314 310 313 319
151 151 152 148 143 141 144 151 164 183 199 208 207 198 180 157 79 63 90 109 112 113 111 109 113 119 121 124 142 168 172 171 173 181 191 207 219 219 215 212 214 228 247 269 288 297 302 305 307 311 311 311 311 310 310 308 306 303 302 303 307 309 305 300 298 301 306 310 317 313 292 297 312 317 315 315 312 308 311 321 321 309 303 304 311
151 149 151 147 140 137 135 139 164 193 208 208 198 189 174 153 127 112 120 131 136 140 139 132 131 132 131 129 134 148 157 157 161 168 177 195 209 205 207 216 219 234 263 282 296 301 304 307 310 312 312 312 312 310 309 308 305 301 298 298 302 306 305 300 299 302 305 304 308 309 302 301 307 311 313 315 312 306 300 294 300 305 306 307 308